Location: IoMAS Observatory
(54.1780°N, 4.6265°W)
Time: 09:38:58
(UTC+01:00)

ISS - Pass Details

Date: 06 December 2021
Orbit: 413 x 422 km, 51.6° (Epoch: 23 January)

Event Time Altitude Azimuth Distance (km) Brightness Sun altitude
Rises 17:50:02 0° 276° (W) 2,387 1.1 -7.3°
Reaches altitude 10° 17:52:15 10° 267° (W) 1,518 0.3 -7.6°
Maximum altitude 17:55:23 35° 201° (SSW) 707 -2.1 -8.0°
Drops below altitude 10° 17:58:31 10° 133° (SE) 1,508 -1.1 -8.4°
Enters shadow 18:01:43 -3° 123° (ESE) 2,779 0.1 -8.8°
